Find Galaxy 8i

NORAD ID: 25086 Int'l Des: 1997-078 Owner: PAN Country: US operational
HEOCIRCULAR

当前视图

正在加载3D地球...

关于 Galaxy 8i

正在加载描述...

即将过境

Passes for default location (London). Set your location on the main map for personalized predictions.

高度历史

Loading altitude history...

两行轨道根数

1 25086U 97078A 26149.55882141 -.00000132 00000-0 00000-0 0 9995
2 25086 14.0374 10.0382 0008200 49.0922 300.8812 0.99696521103757
Epoch: May 29, 2026 • Age: 15 hours

当前状态

高度 35983.6 km
速度 3.07 km/s
星下点 -8.15°S, 90.34°W
发射日期 Dec 8, 1997
运行时间 28.4 years
类型 other

技术详情

分类 Payload
质量 3558.00 kg
干质量 1962.00 kg
总质量 3558.00 kg
长度 4.00 m
直径 3.20 m
跨度 26.20 m
形状 Box + 2 Pan
制造商 HSES
平台类型 HS-601HP
阶段状态 Renamed
所有者/国家 PAN/US

Most Searched